Weather History for Tunis-Carthage, Tunisia

Change the Weather History Date:

Wednesday, August 7, 2013

  Actual Average Record
Temperature  
Mean Temperature 90 °F -  
Max Temperature 105 °F 90 °F - ()
Min Temperature 76 °F 68 °F - ()
Cooling Degree Days 26    
Growing Degree Days 40 (Base 50)    
Moisture  
Dew Point 57 °F    
Average Humidity 36    
Maximum Humidity 74    
Minimum Humidity 9    
Precipitation  
Precipitation 0.00 in 0.02 in - ()
Sea Level Pressure  
Sea Level Pressure 29.92 in    
Wind  
Wind Speed 5 mph ()    
Max Wind Speed 10 mph    
Max Gust Speed -    
Visibility 6.0 miles    
Events      
T = Trace of Precipitation, MM = Missing Value Source: Averaged Metar Reports

Daily Weather History Graph

Daily Weather History Graph

Search for Another Location

Airport:

Trip Planner

Search our weather history database for the weather conditions in past years. The results will help you decide how hot, cold, wet, or windy it might be!

Date:

Astronomy

Aug. 07, 2013 Rise Set
Actual Time 5:29 AM CET 7:19 PM CET
Civil Twilight 5:01 AM CET 7:47 PM CET
Nautical Twilight 4:27 AM CET 8:21 PM CET
Astronomical Twilight 3:50 AM CET 8:57 PM CET
Moon 5:59 AM CET (8/7) 7:21 PM CET (8/7)
Length of Visible Light 14h 46m
Length of Day
13h 50m
New Moon, 0% of the Moon is Illuminated
Aug 7
New Moon
Aug 14
First Quarter
Aug 21
Full
Aug 28
Last Quarter
Sep 5
New

Hourly Weather History & Observations

Time (CET) Temp. Heat Index Dew Point Humidity Pressure Visibility Wind Dir Wind Speed Gust Speed Precip Events Conditions
12:00 AM 77.0 °F - 68.0 °F 74% 29.95 in - East 3.5 mph - N/A   Clear
12:30 AM 78.8 °F - 69.8 °F 74% 29.95 in - SSE 3.5 mph - N/A   Clear
1:00 AM 80 °F - 69 °F 61% 29.96 in 6 mi Calm Calm - -  
1:00 AM 80.6 °F 83.9 °F 69.8 °F 70% 29.95 in - South 5.8 mph - N/A   Clear
1:30 AM 80.6 °F 83.2 °F 68.0 °F 65% 29.95 in - South 3.5 mph - N/A   Clear
2:00 AM 78.8 °F - 68.0 °F 69% 29.92 in - South 3.5 mph - N/A   Clear
2:30 AM 78.8 °F - 69.8 °F 74% 29.92 in - South 4.6 mph - N/A   Clear
3:00 AM 78.8 °F - 69.8 °F 74% 29.92 in - SSW 4.6 mph - N/A   Clear
3:30 AM 78.8 °F - 68.0 °F 69% 29.92 in - SSW 3.5 mph - N/A   Clear
4:00 AM 77 °F - 64 °F 56% 29.92 in 6 mi South 3.5 mph - -  
4:00 AM 77.0 °F - 66.2 °F 69% 29.92 in - SSW 4.6 mph - N/A   Clear
4:30 AM 77.0 °F - 62.6 °F 61% 29.92 in - South 4.6 mph - N/A   Clear
5:00 AM 77.0 °F - 60.8 °F 57% 29.92 in - South 4.6 mph - N/A   Clear
5:30 AM 78.8 °F - 59.0 °F 51% 29.92 in - SSW 4.6 mph - N/A   Clear
6:00 AM 77.0 °F - 59.0 °F 54% 29.92 in 5.0 mi South 5.8 mph - N/A   Partly Cloudy
7:00 AM 81 °F - 57 °F 34% 29.93 in 5 mi South 4.6 mph - -   Scattered Clouds
7:00 AM 80.6 °F 80.8 °F 57.2 °F 45% 29.92 in 5.0 mi South 5.8 mph - N/A   Partly Cloudy
7:30 AM 84.2 °F 82.8 °F 53.6 °F 35% 29.92 in 5.0 mi South 5.8 mph - N/A   Partly Cloudy
8:00 AM 87.8 °F 85.7 °F 53.6 °F 31% 29.92 in 6.2 mi South 5.8 mph - N/A   Partly Cloudy
8:30 AM 89.6 °F - 50.0 °F 26% 29.92 in 6.2 mi South 5.8 mph - N/A   Partly Cloudy
9:00 AM 93.2 °F - 48.2 °F 21% 29.95 in 6.2 mi SSW 8.1 mph - N/A   Partly Cloudy
9:30 AM 96.8 °F - 48.2 °F 19% 29.95 in 6.2 mi SW 6.9 mph - N/A   Partly Cloudy
10:00 AM 98 °F - 49 °F 11% 29.94 in 6 mi SSW 4.6 mph - -   Scattered Clouds
10:00 AM 96.8 °F - 48.2 °F 19% 29.92 in 6.2 mi SW 5.8 mph - N/A   Partly Cloudy
10:30 AM 100.4 °F - 48.2 °F 17% 29.92 in 6.2 mi SSE 5.8 mph - N/A   Partly Cloudy
11:00 AM 102.2 °F - 48.2 °F 16% 29.92 in 6.2 mi SSE 4.6 mph - N/A   Partly Cloudy
11:30 AM 104.0 °F - 48.2 °F 15% 29.92 in 6.2 mi ESE 5.8 mph - N/A   Partly Cloudy
12:00 PM 102.2 °F - 50.0 °F 17% 29.92 in 6.2 mi East 8.1 mph - N/A   Partly Cloudy
12:30 PM 102.2 °F - 46.4 °F 15% 29.92 in 6.2 mi East 8.1 mph - N/A   Partly Cloudy
1:00 PM 104 °F - 49 °F 9% 29.93 in 6 mi East 9.2 mph - -   Scattered Clouds
1:00 PM 104.0 °F - 46.4 °F 14% 29.92 in 6.2 mi East 8.1 mph - N/A   Partly Cloudy
1:30 PM 104.0 °F - 48.2 °F 15% 29.92 in 6.2 mi East 8.1 mph - N/A   Partly Cloudy
2:00 PM 104.0 °F - 46.4 °F 14% 29.89 in 6.2 mi East 8.1 mph - N/A   Partly Cloudy
2:30 PM 105.8 °F - 44.6 °F 13% 29.89 in 6.2 mi East 8.1 mph - N/A   Partly Cloudy
3:00 PM 104.0 °F - 51.8 °F 17% 29.89 in 6.2 mi ENE 6.9 mph - N/A   Partly Cloudy
3:30 PM 104.0 °F 102.3 °F 53.6 °F 19% 29.89 in 6.2 mi East 9.2 mph - N/A   Partly Cloudy
4:00 PM 103 °F - 56 °F 13% 29.89 in 6 mi ENE 10.4 mph - -   Scattered Clouds
4:00 PM 102.2 °F 100.9 °F 55.4 °F 21% 29.89 in 6.2 mi East 8.1 mph - N/A   Partly Cloudy
4:30 PM 102.2 °F 100.9 °F 55.4 °F 21% 29.89 in 6.2 mi East 8.1 mph - N/A   Partly Cloudy
5:00 PM 102.2 °F 102.4 °F 59.0 °F 24% 29.89 in 6.2 mi East 6.9 mph - N/A   Partly Cloudy
6:00 PM 100.4 °F 98.4 °F 53.6 °F 21% 29.86 in 6.2 mi ENE 9.2 mph - N/A   Partly Cloudy
6:30 PM 96.8 °F 95.8 °F 57.2 °F 27% 29.89 in 6.2 mi ENE 9.2 mph - N/A   Partly Cloudy
7:00 PM 95 °F - 61 °F 23% 29.89 in 6 mi East 6.9 mph - -   Scattered Clouds
7:00 PM 95.0 °F 95.2 °F 60.8 °F 32% 29.89 in 6.2 mi East 5.8 mph - N/A   Partly Cloudy
7:30 PM 95.0 °F 95.2 °F 60.8 °F 32% 29.89 in 6.2 mi ESE 5.8 mph - N/A   Partly Cloudy
8:00 PM 93.2 °F 93.3 °F 60.8 °F 34% 29.89 in 6.2 mi ESE 5.8 mph - N/A   Partly Cloudy
8:30 PM 91.4 °F 91.4 °F 60.8 °F 36% 29.92 in 6.2 mi SE 4.6 mph - N/A   Partly Cloudy